Temperature
14 14 14 14 14 14 14 14 14 14 14 14 14 14 14 14 14 14 13 13 14 14 14 14 14 13 13 13 13 13 13 13 13 13 13 12 12 12 12 12 11 11 11
13 13 13 14 14 14 14 14 14 14 14 14 14 14 14 14 13 13 13 13 13 13 13 13 13 13 13 13 13 13 13 13 13 12 12 12 12 12 11 11 11 10 10
13 13 13 13 13 13 13 13 13 13 13 13 13 14 13 13 13 13 13 13 13 13 13 13 13 13 13 13 13 13 12 12 12 12 12 12 12 11 11 11 10 10 10
12 12 13 13 13 13 13 13 13 13 13 13 13 13 13 13 13 13 13 13 13 13 13 13 13 13 13 12 12 12 12 12 12 12 11 11 11 11 11 10 10 10 10
12 12 12 12 12 12 12 12 12 12 13 13 13 13 13 13 13 13 12 12 12 12 12 12 12 12 12 12 12 12 12 11 11 11 11 11 11 11 10 10 10 10 10
11 12 12 12 12 12 12 12 12 12 12 12 12 12 12 12 12 12 12 12 12 12 12 12 12 12 12 12 12 11 11 11 11 11 11 11 10 10 10 10 10 9 9
11 11 11 11 12 12 12 12 12 11 11 11 11 11 12 12 12 12 12 12 12 12 12 12 12 12 12 11 11 11 11 11 11 11 10 10 10 10 10 10 9 9 9
11 11 11 11 11 11 11 11 11 11 11 11 11 11 10 11 11 11 11 11 11 11 11 11 11 11 11 11 11 11 11 11 11 10 10 10 10 10 9 9 9 9 9
11 11 11 11 11 11 11 11 11 10 11 11 10 10 10 10 10 11 11 11 11 11 11 11 11 11 11 11 10 10 10 10 10 10 10 9 9 9 9 8 8 8 8
10 10 10 10 10 10 10 11 10 10 10 10 10 10 10 10 10 10 10 10 10 10 10 10 10 10 10 10 10 10 10 10 9 9 9 9 9 8 8 8 8 8 8
10 10 10 10 10 10 10 10 10 10 10 10 10 10 10 10 9 9 9 10 10 10 10 10 10 10 9 9 9 9 9 9 9 9 9 8 8 8 8 8 8 7 7
9 9 9 9 9 9 10 10 10 10 10 10 9 9 9 9 9 9 9 9 9 9 9 9 9 9 9 9 9 9 9 9 8 8 8 8 8 8 8 7 7 7 7
9 9 9 9 9 9 9 9 9 9 9 9 9 9 9 9 9 9 8 8 8 8 9 9 8 8 8 8 8 8 8 8 8 8 8 8 8 7 7 7 7 7 7
8 8 8 8 9 9 9 9 9 9 9 9 9 9 9 9 8 8 8 8 8 8 8 8 8 8 8 8 8 8 8 8 8 7 7 7 7 7 7 7 7 7 6
8 8 8 8 8 8 8 8 8 8 8 8 8 8 8 8 8 8 8 7 7 7 7 7 8 8 7 7 7 7 7 7 7 7 7 7 7 6 6 6 6 6 6
7 7 7 7 8 8 7 8 8 8 8 8 8 8 8 8 7 7 7 7 7 6 6 7 7 7 7 7 7 7 7 7 7 7 6 6 6 6 6 6 6 6 5
7 7 7 7 7 7 7 7 7 7 7 7 7 7 7 7 7 7 7 7 6 6 6 6 6 6 7 7 7 6 6 6 6 6 6 6 6 6 6 6 5 5 5
7 7 6 6 6 7 7 7 7 6 7 7 7 6 6 6 6 6 6 6 6 6 6 6 6 6 6 6 6 6 6 5 5 6 5 5 5 5 5 5 5 5 4
6 6 6 6 6 6 6 6 6 6 6 6 6 6 6 6 6 6 6 6 6 5 5 5 6 6 5 5 5 5 5 5 5 5 5 5 5 5 4 4 4 4 4
6 6 6 6 6 6 6 6 6 6 6 6 6 6 5 5 5 5 5 5 5 5 5 5 5 5 5 4 4 4 4 4 5 5 4 4 4 4 4 4 4 3 3
6 6 6 6 6 6 6 6 6 5 5 5 5 5 5 5 5 5 5 5 5 5 5 4 4 4 4 4 3 3 3 4 4 4 4 4 4 4 4 4 3 3 3
6 6 6 6 6 6 5 5 5 5 5 5 5 5 5 5 5 5 4 4 4 4 4 4 3 3 3 3 3 2 2 2 2 3 3 3 3 3 3 3 3 3 2
5 5 5 5 5 5 5 5 5 5 5 5 5 4 4 4 4 4 4 4 4 4 3 3 3 3 3 2 2 2 2 1 1 2 1 2 2 2 2 2 2 2 2
5 5 5 5 5 5 5 5 4 4 4 4 4 4 4 4 4 4 4 3 3 3 3 3 2 2 2 1 1 1 1 1 1 1 1 1 2 2 2 2 2 2 2
5 5 5 5 5 5 4 4 4 4 4 4 4 4 3 3 3 3 3 3 3 3 3 2 2 2 1 1 1 1 0 0 0 1 0 -0 0 1 1 2 1 1 1
5 5 4 4 4 4 4 4 3 3 3 3 3 3 3 3 3 2 2 2 2 2 2 2 2 1 1 1 1 0 -0 -1 -1 -1 -1 -1 -1 -1 -0 0 1 1 1
Wind_Speed
2 2 2 3 4 5 5 5 5 6 6 6 7 7 6 8 7 6 8 12 12 11 9 8 7 7 6 6 5 5 5 5 5 5 5 5 6 7 7 8 8 9 9
1 1 2 2 3 4 4 4 5 4 4 3 4 4 5 6 6 7 9 12 13 12 11 10 8 8 7 6 6 5 4 4 4 4 5 6 7 8 8 8 9 9 10
1 1 2 2 2 3 3 3 3 3 2 3 3 4 4 4 4 5 8 10 11 12 12 11 10 9 8 7 7 6 5 4 4 5 5 6 7 8 9 9 10 10 10
1 1 2 2 2 2 2 2 2 2 2 2 2 3 3 2 3 4 5 7 8 9 11 12 11 10 9 8 7 7 6 6 6 6 7 7 8 8 9 10 11 11 11
2 2 2 2 2 1 1 2 1 1 2 2 2 2 2 2 2 2 3 5 6 7 8 9 11 10 9 9 9 8 8 7 7 8 8 9 9 10 10 11 11 12 13
2 2 2 2 2 1 2 2 2 2 2 2 2 2 2 3 2 2 3 3 5 6 7 8 8 8 9 9 9 9 8 8 8 9 9 10 11 11 12 13 13 13 13
3 2 1 2 2 2 2 2 2 2 2 1 0 1 2 3 3 3 2 2 2 4 5 6 7 7 7 8 9 9 9 9 9 10 11 11 12 12 13 14 14 14 14
2 2 1 2 2 1 2 2 2 2 1 2 2 1 2 2 2 3 2 2 2 2 3 5 6 7 7 6 7 8 8 9 11 12 13 13 13 14 14 15 15 15 15
2 2 2 2 2 2 2 2 2 3 2 2 2 2 2 3 1 2 2 2 2 2 2 3 5 6 6 6 6 8 9 9 11 13 13 14 14 15 15 16 16 16 16
2 2 2 2 2 2 3 3 3 3 3 3 2 2 2 1 1 1 2 2 2 2 3 2 2 4 5 5 5 7 8 9 11 13 14 14 15 16 16 16 16 16 16
2 1 2 2 3 3 3 3 3 3 3 4 3 2 2 1 2 2 3 3 2 2 2 2 2 2 3 3 3 4 5 8 11 13 14 15 16 16 16 17 17 17 17
2 2 2 2 3 2 3 3 3 4 4 4 3 2 2 2 2 2 3 2 3 3 2 2 2 2 3 3 3 4 6 8 10 12 14 15 15 15 16 17 17 17 17
2 3 2 2 2 3 3 3 3 4 4 4 4 3 3 2 1 2 2 2 2 2 2 2 2 2 2 2 3 5 6 8 10 12 14 15 15 15 16 17 17 17 17
3 3 3 3 3 3 3 3 3 3 3 4 4 3 2 2 2 2 2 2 2 3 3 3 2 2 1 2 4 5 6 9 10 12 14 14 15 15 15 16 16 17 18
3 3 3 3 3 3 3 2 2 3 3 3 3 3 3 2 2 2 2 2 3 3 4 3 2 1 1 3 5 6 7 9 11 12 13 14 15 15 15 16 16 17 18
3 4 4 3 3 3 3 3 2 2 3 2 2 3 3 2 2 2 2 2 3 4 4 2 2 2 2 3 6 7 8 10 11 12 13 14 14 15 15 15 16 16 17
4 4 4 4 4 4 3 3 3 3 3 3 2 3 3 2 2 2 2 2 2 2 4 3 2 2 3 3 4 5 7 7 8 11 13 13 14 14 15 15 15 15 16
5 5 4 4 4 4 4 4 4 4 4 4 4 4 4 3 3 2 2 2 2 2 3 4 3 2 3 3 3 4 5 7 8 11 13 14 14 14 15 15 15 15 15
5 5 4 4 4 4 4 4 4 4 4 4 4 4 4 4 3 2 2 2 2 2 2 3 3 3 3 3 3 4 5 4 7 9 11 12 14 14 15 15 15 15 15
5 5 4 4 4 4 4 4 4 4 4 4 4 4 4 4 4 3 2 2 2 1 1 2 3 3 3 3 2 3 5 4 5 6 8 10 12 13 14 15 15 15 15
5 5 5 5 4 4 4 4 4 4 4 3 3 3 4 4 5 4 3 3 2 2 2 2 2 3 3 2 3 3 5 5 6 4 4 6 7 7 9 12 13 14 14
5 5 5 5 5 4 6 7 5 4 4 4 4 3 3 4 5 4 4 3 3 3 3 3 3 3 4 3 3 3 4 5 5 3 4 7 5 6 6 7 12 15 15
6 6 6 5 5 6 8 7 7 4 4 3 4 3 3 3 3 3 3 2 2 3 4 3 3 4 4 3 3 4 4 5 6 6 6 7 5 6 7 10 15 16 16
6 6 6 6 5 7 9 9 8 5 4 4 4 4 4 4 3 4 3 2 2 2 2 2 2 3 2 2 3 4 5 5 6 5 3 6 6 6 8 8 14 15 15
6 6 6 6 6 6 9 9 8 4 4 4 4 4 5 5 6 6 4 3 2 1 1 1 2 2 3 4 3 2 3 4 5 5 2 3 5 6 7 6 9 13 14
6 6 6 6 6 6 9 10 9 4 4 4 4 4 6 6 7 6 4 4 3 2 1 1 1 2 2 3 4 1 2 3 4 4 2 3 4 5 6 4 5 7 10
Wind_Direction
204 208 212 203 212 211 207 206 215 217 220 226 220 217 212 216 217 188 174 180 185 194 206 216 223 227 231 238 246 245 251 260 272 281 291 299 303 304 302 303 304 306 307
235 233 232 216 226 224 218 211 222 222 218 215 225 225 222 219 215 191 180 185 191 196 204 213 222 228 231 236 241 243 250 259 274 283 289 293 297 299 299 300 301 303 305
272 261 237 227 231 234 231 228 233 232 220 220 224 231 233 229 221 202 188 185 189 199 205 213 219 223 228 235 237 240 243 252 268 279 288 295 297 296 296 296 297 298 300
277 291 267 250 244 229 232 234 227 230 224 218 227 236 236 235 233 218 200 188 183 191 205 211 211 216 224 231 235 241 247 251 260 269 278 285 292 296 296 295 294 294 294
271 277 275 273 268 245 224 239 237 220 225 227 235 237 242 232 232 227 211 196 189 187 188 202 208 214 221 230 237 242 250 255 261 266 272 279 284 287 290 293 295 293 291
293 282 275 285 286 256 236 225 236 240 226 218 254 264 258 245 231 230 226 197 186 187 185 188 194 207 218 228 238 246 250 258 265 269 273 277 280 283 285 286 288 291 292
302 291 285 276 271 244 249 238 219 225 228 183 138 299 284 258 233 227 212 194 186 186 188 189 187 191 204 221 234 244 254 261 269 274 277 277 278 280 281 284 285 285 288
302 289 260 256 253 245 251 250 242 215 222 182 162 183 269 280 269 236 204 195 204 190 192 201 200 200 201 208 223 237 250 261 269 273 276 278 279 280 281 282 283 284 285
313 313 292 264 242 220 230 242 241 223 223 219 189 179 198 230 278 263 230 208 191 195 214 206 203 205 207 206 214 228 240 257 269 275 278 279 281 281 281 282 284 285 286
266 273 285 269 245 231 225 227 231 228 214 219 232 234 220 182 198 272 289 252 219 221 225 221 208 215 211 205 222 233 240 255 270 277 280 281 282 284 284 285 286 288 288
249 250 266 257 245 239 232 226 228 227 219 216 213 222 235 241 230 215 253 258 264 249 239 238 228 219 210 218 234 243 258 267 275 279 282 284 286 288 288 288 288 288 288
262 250 265 256 249 241 235 228 224 227 224 224 222 216 205 203 212 219 242 246 252 257 259 252 238 214 214 223 245 265 273 280 285 285 287 290 293 297 297 294 292 291 290
266 256 251 252 254 245 239 229 227 224 221 223 221 224 222 221 212 224 235 254 265 272 260 256 235 217 219 222 260 271 275 280 286 288 291 293 297 299 298 297 295 294 293
253 260 255 248 251 252 248 232 229 228 224 226 229 218 221 223 214 216 213 219 263 271 254 255 247 211 237 269 278 280 282 284 288 291 294 296 296 297 298 299 297 295 294
254 255 253 249 245 242 235 225 222 229 214 216 218 214 217 219 213 214 207 206 207 241 251 248 242 243 303 292 294 290 285 287 291 293 293 294 296 297 298 299 298 296 294
247 253 252 245 245 250 239 218 221 232 215 216 207 204 218 213 207 207 209 222 215 220 247 245 252 295 292 301 297 298 294 298 295 295 296 295 296 297 299 299 299 300 298
241 242 244 238 232 233 231 218 214 217 211 206 203 205 217 208 208 209 205 215 224 224 248 270 279 300 293 290 301 300 298 298 299 299 300 300 300 298 299 300 302 302 300
239 240 240 236 231 225 221 215 212 210 206 201 203 202 212 207 204 205 203 212 223 233 241 265 281 283 282 277 283 291 298 300 298 300 303 304 302 301 299 299 300 300 299
235 237 235 232 231 227 226 229 215 209 209 205 200 197 200 194 201 197 190 202 226 251 247 252 272 283 289 291 300 296 288 288 298 299 302 304 304 303 302 302 302 302 300
228 231 228 224 223 223 224 224 216 212 210 205 198 195 195 192 193 187 192 204 211 227 243 250 270 290 293 298 296 299 304 303 302 303 302 303 305 308 306 305 305 303 302
226 226 228 226 220 217 219 211 207 205 200 197 194 191 186 185 186 187 193 197 198 209 236 254 271 292 290 301 300 304 304 310 303 295 305 306 306 303 305 306 305 305 307
221 222 224 221 219 218 217 214 205 201 194 191 198 194 186 187 191 201 206 207 205 207 218 237 260 267 280 291 305 308 309 313 305 315 317 303 298 297 299 299 307 312 311
220 222 220 209 211 211 209 210 207 193 187 192 195 186 188 184 180 177 187 207 235 243 238 231 240 256 271 280 290 296 297 295 287 300 313 296 298 296 296 301 307 310 312
220 220 218 209 209 213 207 208 206 195 187 196 199 193 186 186 186 176 171 181 210 245 255 248 240 263 284 294 282 281 286 294 291 294 298 288 298 295 299 299 299 305 312
223 219 212 205 208 213 207 203 196 183 193 204 202 194 189 188 191 185 173 184 211 248 274 242 249 263 290 309 315 313 311 309 302 301 303 288 299 307 299 291 300 311 315
218 213 210 203 201 205 204 201 196 191 199 204 199 194 199 197 192 191 188 190 209 226 225 289 279 294 309 318 323 311 285 290 295 296 311 314 305 320 310 296 307 320 321
Height
1517 1518 1519 1521 1522 1523 1524 1525 1526 1527 1529 1530 1531 1532 1533 1534 1535 1536 1536 1537 1537 1538 1538 1538 1538 1538 1538 1538 1537 1537 1536 1536 1535 1534 1533 1532 1532 1531 1530 1529 1528 1527 1526
1515 1516 1516 1517 1519 1520 1521 1522 1523 1524 1525 1527 1528 1529 1530 1531 1532 1532 1533 1533 1534 1535 1535 1535 1535 1535 1535 1535 1535 1534 1534 1533 1532 1532 1531 1530 1529 1528 1527 1526 1525 1524 1523
1512 1512 1513 1514 1515 1516 1518 1519 1520 1521 1522 1523 1524 1525 1526 1527 1528 1529 1530 1530 1530 1531 1531 1532 1532 1532 1532 1532 1532 1531 1531 1530 1529 1529 1528 1527 1526 1525 1524 1523 1522 1521 1520
1509 1509 1510 1511 1512 1513 1514 1515 1516 1517 1518 1519 1520 1521 1522 1523 1524 1525 1526 1526 1526 1527 1527 1528 1528 1528 1528 1528 1528 1528 1527 1527 1526 1525 1524 1523 1522 1521 1520 1519 1518 1517 1516
1505 1506 1507 1507 1509 1510 1511 1512 1513 1513 1514 1515 1516 1517 1518 1519 1520 1521 1521 1522 1522 1523 1523 1523 1524 1524 1524 1524 1524 1524 1523 1523 1522 1521 1521 1520 1519 1518 1517 1516 1515 1513 1512
1502 1503 1504 1504 1505 1506 1507 1508 1509 1510 1511 1512 1512 1513 1514 1515 1516 1516 1517 1518 1518 1519 1519 1519 1519 1520 1520 1520 1520 1520 1520 1519 1518 1517 1516 1516 1515 1514 1513 1512 1510 1509 1508
1499 1500 1500 1501 1502 1503 1503 1504 1505 1506 1507 1508 1509 1509 1510 1510 1511 1512 1513 1513 1514 1514 1515 1515 1515 1515 1515 1515 1515 1515 1515 1514 1513 1513 1512 1511 1510 1509 1508 1507 1506 1504 1503
1496 1496 1497 1498 1499 1499 1500 1501 1501 1502 1503 1504 1505 1506 1506 1507 1507 1508 1508 1509 1509 1510 1510 1510 1510 1510 1510 1510 1510 1510 1510 1509 1509 1508 1507 1506 1505 1504 1503 1501 1500 1499 1498
1493 1493 1494 1494 1495 1496 1496 1497 1498 1499 1499 1500 1502 1504 1504 1503 1503 1504 1504 1505 1505 1505 1505 1506 1506 1506 1506 1506 1505 1505 1505 1504 1504 1503 1502 1501 1499 1498 1497 1496 1495 1494 1492
1489 1489 1490 1491 1491 1492 1492 1493 1494 1495 1495 1496 1498 1499 1500 1500 1501 1499 1500 1501 1501 1501 1501 1501 1501 1501 1501 1501 1501 1500 1500 1499 1498 1497 1496 1495 1494 1493 1492 1490 1489 1488 1487
1486 1486 1486 1486 1487 1487 1488 1489 1490 1490 1491 1492 1493 1494 1495 1496 1497 1496 1495 1496 1496 1497 1497 1497 1497 1497 1497 1497 1496 1496 1495 1494 1493 1492 1491 1490 1489 1488 1486 1485 1483 1482 1480
1482 1482 1482 1483 1483 1483 1484 1485 1485 1486 1487 1488 1489 1490 1491 1491 1492 1492 1492 1491 1491 1492 1492 1492 1492 1492 1492 1492 1492 1491 1490 1489 1488 1487 1486 1485 1483 1481 1480 1478 1477 1475 1474
1478 1478 1478 1478 1479 1479 1480 1481 1481 1482 1483 1483 1484 1485 1486 1487 1487 1488 1488 1487 1487 1487 1487 1487 1487 1488 1487 1487 1487 1486 1485 1484 1483 1482 1480 1479 1477 1475 1474 1472 1470 1469 1468
1474 1474 1474 1474 1474 1475 1475 1476 1476 1477 1478 1479 1479 1480 1481 1482 1483 1484 1484 1484 1483 1482 1482 1482 1483 1483 1483 1482 1482 1481 1480 1479 1477 1476 1475 1473 1471 1469 1468 1466 1464 1462 1461
1470 1470 1470 1470 1470 1471 1471 1471 1472 1473 1473 1474 1475 1476 1476 1477 1478 1479 1480 1480 1481 1479 1478 1478 1479 1478 1478 1477 1477 1475 1474 1473 1472 1470 1469 1467 1465 1464 1462 1460 1458 1456 1454
1466 1465 1466 1466 1466 1466 1467 1467 1468 1468 1469 1470 1470 1471 1472 1473 1473 1474 1475 1475 1476 1476 1474 1473 1474 1474 1473 1472 1472 1470 1469 1468 1466 1465 1464 1462 1460 1458 1456 1453 1451 1450 1448
1461 1461 1461 1461 1461 1462 1462 1463 1463 1464 1464 1465 1466 1466 1467 1468 1469 1469 1470 1471 1471 1471 1470 1469 1469 1469 1468 1467 1466 1465 1464 1463 1461 1460 1458 1456 1454 1452 1450 1448 1445 1443 1441
1457 1457 1457 1457 1457 1458 1458 1459 1459 1459 1460 1460 1461 1462 1462 1463 1464 1465 1465 1466 1466 1466 1466 1464 1464 1464 1463 1462 1461 1460 1459 1458 1456 1455 1453 1451 1449 1447 1444 1442 1440 1438 1435
1453 1453 1453 1453 1453 1453 1454 1454 1455 1455 1456 1456 1457 1458 1458 1459 1459 1460 1461 1461 1462 1462 1461 1460 1459 1459 1458 1457 1456 1455 1454 1453 1451 1449 1448 1446 1443 1441 1439 1436 1434 1432 1429
1448 1448 1448 1448 1449 1449 1450 1450 1450 1451 1451 1452 1453 1453 1454 1455 1455 1456 1456 1457 1457 1457 1457 1456 1455 1454 1454 1453 1452 1450 1448 1448 1446 1444 1442 1440 1438 1436 1433 1431 1429 1426 1423
1444 1444 1444 1444 1444 1445 1445 1446 1446 1447 1447 1448 1448 1449 1450 1450 1451 1452 1452 1452 1453 1452 1452 1451 1451 1450 1449 1448 1447 1446 1444 1442 1440 1439 1436 1435 1433 1430 1428 1426 1423 1420 1417
1439 1439 1439 1439 1440 1440 1441 1441 1442 1442 1443 1443 1444 1445 1445 1446 1447 1448 1448 1448 1449 1448 1448 1447 1446 1446 1445 1444 1443 1442 1440 1438 1435 1435 1432 1429 1428 1425 1423 1420 1418 1415 1412
1434 1434 1434 1435 1435 1436 1436 1437 1438 1438 1438 1439 1440 1440 1441 1442 1443 1443 1444 1444 1444 1444 1444 1444 1443 1442 1441 1441 1440 1438 1437 1435 1432 1430 1428 1423 1422 1420 1418 1415 1413 1410 1407
1429 1429 1429 1430 1430 1431 1432 1432 1433 1433 1434 1434 1435 1436 1437 1438 1438 1439 1439 1439 1440 1440 1440 1439 1439 1438 1438 1437 1436 1435 1433 1431 1428 1427 1425 1420 1417 1415 1413 1410 1408 1405 1402
1424 1424 1425 1425 1425 1426 1427 1427 1428 1428 1429 1430 1431 1432 1432 1433 1434 1434 1435 1435 1435 1435 1435 1435 1435 1435 1434 1433 1432 1431 1429 1427 1423 1422 1421 1417 1413 1410 1407 1405 1403 1401 1398
1418 1419 1419 1420 1420 1421 1422 1423 1423 1423 1424 1425 1426 1427 1428 1429 1429 1430 1430 1430 1430 1430 1431 1430 1430 1430 1430 1429 1428 1427 1425 1423 1420 1418 1416 1414 1411 1408 1402 1400 1399 1396 1393